Terug naar catalogus

FENGYUN 1C DEB

ActiefSSO
NORAD 36232·DEBRIS·🇨🇳 China

Gelanceerd May 10, 1999 vanaf Taiyuan Satellite Launch Center

Loading…

Volgende Passages (komende 24 uur)

TLE

VersSource: Space-Track

Epoch: Sep 12, 2026, 04:01 UTC

1 36232U 99025DVH 26255.16772119  .00000322  00000-0  18468-3 0  9992
2 36232  98.7322 237.0395 0117712 330.1218  29.3269 14.12781739655960

Volg FENGYUN 1C DEB in realtime met AllMySat

Download on the App Store